x

9410230 - La Jolla, Ca (ljac1) Weather Station

11:12 - Tue 27th Jun 2017 All times are PDT. -7 hours from GMT.

  • Wind
    1mph, 2mph gusts
  • Sea Temp 59°f
  • Air Temp 64°f
  • Sea Pressure 1011.4mb
  • 9410230 - La Jolla, Ca
  • 9410230 - La Jolla, Ca

More Historic Weather Station data

Upgrade to MSW Pro to gain access to the past 30 days of data for over 8000 Wavebouys and Weather Stations around the globe.

Join Pro

Comparision Forecast

View Surf forecast
   
mar. 06/27 11:12 1 2 mph 1011.4mb 59f 64f
11:06  -  2 mph 1011.5mb 60f 64f
11:00 2 5 mph 1011.5mb 60f 64f
10:54 2 3 mph 1011.4mb 60f 64f
10:48 3 5 mph 1011.5mb 60f 65f
10:42 1 5 mph 1011.5mb - -
10:36 3 6 mph 1011.5mb - -
10:30 3 5 mph 1011.5mb 61f 65f
10:24 3 5 mph 1011.5mb 61f 65f
10:18 2 2 mph 1011.4mb 61f 65f
10:12  -  3 mph 1011.4mb 61f 65f
10:06 2 6 mph 1011.3mb 61f 65f
10:00 3 5 mph 1011.3mb 62f 65f
9:54 1 6 mph 1011.3mb 62f 65f
9:48 5 6 mph 1011.2mb 63f 65f
9:42 2 5 mph 1011.2mb 64f 65f
9:36 2 5 mph 1011.1mb 65f 65f
9:30 2 5 mph 1011mb 66f 65f
9:24 2 7 mph 1011mb 67f 65f
9:18 5 6 mph 1010.9mb 67f 65f
9:12 2 6 mph 1010.9mb 66f 66f
9:06 3 6 mph 1010.8mb 65f 66f
9:00 3 6 mph 1010.8mb 65f 66f
8:54 3 5 mph 1010.8mb 65f 66f
8:48 3 5 mph 1010.7mb - -
8:42 3 5 mph 1010.7mb 66f 66f
8:36 3 5 mph 1010.7mb 67f 66f
8:30 2 5 mph 1010.7mb 67f 66f
8:24 2 3 mph 1010.7mb 69f 66f
8:18 3 3 mph 1010.6mb 69f 66f
8:12 2 5 mph 1010.7mb 69f 66f
8:06 2 5 mph 1010.7mb 69f 66f
8:00 5 7 mph 1010.6mb 69f 66f
7:54 3 6 mph 1010.6mb 70f 67f
7:48 3 5 mph - - -
7:42 1 7 mph 1010.6mb 70f 66f
7:36 2 6 mph 1010.6mb 70f 67f
7:30 5 6 mph 1010.6mb 70f 67f
7:24 2 6 mph 1010.6mb 70f 67f
7:18 5 6 mph 1010.6mb - -
7:12 2 6 mph 1010.5mb 70f 67f
7:06 5 7 mph 1010.5mb 70f 67f
7:00 3 6 mph 1010.4mb 70f 68f
6:54 6 7 mph 1010.4mb 70f 67f
6:48 5 7 mph - - -
6:42 5 6 mph 1010.4mb 70f 68f
6:36 3 6 mph 1010.5mb 70f 68f
6:30 5 6 mph 1010.5mb 70f 68f
6:24 5 7 mph 1010.5mb 70f 68f
6:18 5 7 mph - - -
6:12 6 6 mph 1010.6mb 70f 68f
6:06 6 7 mph 1010.5mb 70f 68f
6:00 5 7 mph 1010.5mb 70f 68f
5:54 6 8 mph 1010.5mb 70f 68f
5:48 6 6 mph - - -
5:42 6 6 mph 1010.5mb 69f 68f
5:36 5 7 mph 1010.5mb 68f 68f
5:30 5 7 mph 1010.6mb 68f 68f
5:24 6 7 mph 1010.6mb 68f 68f
5:18 5 6 mph - - -
5:12 5 7 mph 1010.8mb 67f 69f
5:06 5 6 mph 1010.9mb 67f 69f
5:00 3 6 mph 1010.9mb 67f 70f
4:54 3 6 mph 1011mb 67f 70f
4:48 5 6 mph 1011.1mb - -
4:42 5 6 mph 1011.1mb 66f 70f
4:36 5 7 mph 1011.1mb 66f 70f
4:30 5 7 mph 1011.1mb 66f 70f
4:24 5 6 mph 1011.2mb 67f 70f
4:00 5 6 mph 1011.4mb 65f 71f
3:54 6 7 mph 1011.5mb 63f 70f
3:48 6 7 mph 1011.5mb - -
3:42 5 6 mph 1011.5mb 63f 70f
3:36 5 6 mph 1011.6mb 62f 70f
3:30 5 6 mph 1011.6mb 62f 69f
3:24 6 6 mph 1011.7mb 61f 69f
3:18 5 6 mph - - -
3:12 5 6 mph 1011.8mb 60f 70f
3:06 5 6 mph 1011.9mb 60f 70f
3:00 5 6 mph 1011.9mb 60f 70f
2:54 5 6 mph 1011.9mb 61f 70f
2:48 6 7 mph - - -
2:42 7 7 mph 1012mb 61f 69f
2:36 7 8 mph 1012.1mb 62f 69f
2:30 7 7 mph 1012.1mb 62f 69f
2:24 7 8 mph 1012.1mb 62f 69f
2:18 6 7 mph - - -
2:12 6 7 mph 1012.1mb 63f 70f
2:06 6 7 mph 1012.2mb 63f 70f
2:00 6 7 mph 1012.2mb 63f 70f
1:54 5 7 mph 1012.2mb 64f 70f
1:48 7 7 mph 1012.2mb 64f 70f
1:42 6 7 mph 1012.2mb 64f 70f
1:36 6 7 mph 1012.1mb 64f 70f
1:30 6 6 mph 1012mb 64f 71f
1:24 6 6 mph 1012.1mb 64f 71f
1:18 5 6 mph 1012.1mb 64f 72f
1:12 5 6 mph 1012.2mb 63f 72f
1:06 5 6 mph 1012.2mb 64f 71f
1:00 6 6 mph 1012.2mb 64f 71f
12:54 5 6 mph 1012.2mb 63f 71f
12:48 5 6 mph 1012.1mb 63f 71f
12:42 5 6 mph 1012.1mb 63f 71f
12:36 5 6 mph 1012.1mb 63f 71f
12:30 5 6 mph 1012mb 64f 71f
12:24 5 6 mph 1012.1mb 65f 71f
12:18 5 6 mph - - -
12:12 5 6 mph 1012.1mb 66f 71f
12:06 3 5 mph 1012.1mb 66f 72f
12:00 3 6 mph 1012.1mb 66f 71f
11:54 3 5 mph 1012.2mb 66f 71f
11:48 5 5 mph 1012.2mb 65f 71f
11:42 2 3 mph 1012.2mb 65f 73f
11:36 2 3 mph 1012.1mb 65f 73f
11:30 2 3 mph 1012.1mb 64f 73f
11:24 2 3 mph 1012.2mb 63f 72f
11:18 2 2 mph 1012.2mb 61f 72f
11:12 1 2 mph 1012.2mb 60f 73f
11:06 2 2 mph 1012.2mb 60f 73f
11:00 1 2 mph 1012.2mb 60f 73f
10:54  -  1 mph 1012.2mb 60f 73f
10:48  -  1 mph 1012.2mb 60f 73f
10:42  -  1 mph 1012.1mb 60f 72f
10:36  -  1 mph 1012.1mb 60f 72f
10:30  -  1 mph 1012mb 59f 71f
10:24  -  1 mph 1012.1mb 60f 71f
10:18  -  1 mph - - -
10:12  -  1 mph 1011.9mb 60f 71f
10:06  -  1 mph 1011.9mb 61f 70f
10:00  -  2 mph 1011.9mb 61f 69f
9:54 1 2 mph 1011.9mb 61f 69f
9:48  -  1 mph 1011.9mb 62f 70f
9:42 1 2 mph 1011.9mb 61f 69f
9:36 1 2 mph 1012mb 61f 69f
9:30  -  1 mph 1012mb 62f 71f
9:24  -  0 mph 1012mb 62f 72f
9:18  -  1 mph 1012mb 62f 71f
9:12  -  1 mph 1011.9mb 63f 69f
9:06 1 2 mph 1012mb 64f 68f
9:00 1 2 mph 1011.9mb 64f 68f
8:54 2 2 mph 1011.9mb 64f 68f
8:48  -  1 mph - - -
8:42  -  1 mph 1011.9mb 64f 69f
8:36  -  1 mph 1011.8mb 64f 70f
8:30  -  1 mph 1011.8mb 63f 70f
8:24  -  1 mph 1011.8mb 63f 68f
8:18  -  1 mph 1011.7mb 63f 68f
8:12  -  1 mph 1011.7mb 63f 67f
8:06  -  2 mph 1011.7mb 64f 67f
8:00  -  1 mph 1011.6mb 64f 67f
7:54  -  0 mph 1011.6mb 64f 67f
7:48  -  0 mph - - -
7:42  -  1 mph 1011.5mb 64f 67f
7:36  -  1 mph 1011.4mb 65f 67f
7:30  -  1 mph 1011.4mb 66f 67f
7:24 1 2 mph 1011.3mb 66f 67f
7:18  -  2 mph 1011.3mb 66f 67f
7:12  -  1 mph 1011.3mb 66f 67f
7:06  -  0 mph 1011.3mb 65f 67f
7:00  -  2 mph 1011.4mb 66f 67f
6:54 1 2 mph 1011.4mb 67f 67f
6:48  -  1 mph - - -
6:42  -  2 mph 1011.2mb 67f 67f
6:36 1 2 mph 1011.2mb 67f 67f
6:30  -  1 mph 1011.2mb 67f 67f
6:24  -  2 mph 1011.1mb 67f 67f
6:18  -  0 mph 1011.1mb 67f 67f
6:12  -  0 mph 1011.1mb 67f 67f
6:06  -  0 mph 1011mb 67f 67f
6:00  -  1 mph 1010.9mb 67f 67f
5:54  -  2 mph 1010.9mb 67f 67f
5:48 1 2 mph 1011mb 67f 67f
5:42  -  1 mph 1011mb 67f 67f
5:36  -  1 mph 1011mb 67f 67f
5:30 1 1 mph 1011mb 67f 66f
5:24 1 1 mph 1011mb 67f 67f
5:18  -  1 mph 1010.9mb 67f 67f
5:12  -  1 mph 1010.8mb 68f 67f
5:06  -  1 mph 1010.8mb 68f 67f
5:00 1 2 mph 1010.7mb 67f 67f
4:54 2 2 mph 1010.8mb 67f 67f
4:48 1 2 mph 1010.7mb 67f 67f
4:42 1 2 mph 1010.7mb 66f 67f
4:36 1 3 mph 1010.8mb 66f 67f
4:30 2 3 mph 1010.8mb 65f 67f
4:24 2 2 mph 1010.8mb 65f 67f
4:18 2 2 mph 1010.8mb 65f 67f
4:12 2 5 mph 1010.7mb 64f 67f
4:06 5 5 mph 1010.7mb 65f 67f
4:00 2 3 mph 1010.7mb 64f 67f
3:54 1 2 mph 1010.6mb 64f 67f
3:48 2 3 mph - - -
3:42 2 2 mph 1010.5mb 60f 67f
3:36 1 1 mph 1010.5mb 57f 67f
3:30 1 1 mph 1010.5mb 56f 67f
3:24  -  1 mph 1010.5mb 56f 67f
3:18 1 2 mph 1010.5mb 56f 67f
3:12 2 3 mph 1010.5mb 56f 67f
3:06 1 2 mph 1010.6mb 56f 67f
3:00 1 1 mph 1010.6mb 55f 67f
2:54  -  1 mph 1010.8mb 55f 67f
2:48  -  0 mph 1010.8mb 55f 67f
2:42  -  2 mph 1010.8mb 55f 67f
2:36 2 2 mph 1010.7mb 56f 67f
2:30  -  1 mph 1010.8mb 56f 67f
2:24  -  1 mph 1010.9mb 56f 67f
2:18  -  1 mph 1010.8mb 56f 67f
2:12  -  1 mph 1010.8mb 56f 67f
2:06 1 1 mph 1010.9mb 56f 67f
2:00 1 1 mph 1010.9mb 56f 67f
1:54 1 1 mph 1011mb 57f 67f
1:48  -  1 mph 1011mb 57f 67f
1:42  -  1 mph 1011mb 57f 67f
1:36 1 1 mph 1011mb 57f 67f
1:30 1 1 mph 1011mb 57f 68f
1:24 1 2 mph 1011.1mb 57f 68f
1:18 2 2 mph - - -
1:12 2 2 mph 1011.2mb 57f 68f
1:06 2 2 mph 1011.2mb 57f 68f
1:00 2 2 mph 1011.3mb 57f 68f
12:54 1 2 mph 1011.3mb 57f 68f
12:48  -  1 mph - - -
12:42 1 1 mph 1011.5mb 57f 68f
12:36  -  0 mph 1011.5mb 58f 68f
12:30  -  1 mph 1011.6mb 58f 67f
12:24 1 1 mph 1011.7mb 58f 68f
12:18  -  1 mph 1011.8mb 58f 67f
12:12  -  0 mph 1011.9mb 58f 68f
12:06  -  0 mph 1012mb 58f 68f
12:00  -  1 mph 1012mb 58f 68f
lun. 06/26 11:54 2 2 mph 1012mb 58f 69f
11:48 2 3 mph - - -
11:42 2 3 mph 1011.9mb 59f 69f
11:36 2 2 mph 1012mb 59f 68f
11:30 1 2 mph 1012mb 59f 68f
11:24 1 2 mph 1012mb 60f 69f
11:18 2 2 mph 1011.9mb 61f 69f
11:12 2 2 mph 1011.8mb 62f 69f
11:06 2 2 mph 1011.8mb 62f 69f
11:00 1 3 mph 1011.9mb 62f 69f
10:54 2 3 mph 1011.9mb 62f 69f
10:48  -  1 mph 1011.8mb 63f 68f
10:42  -  0 mph 1011.9mb 63f 68f
10:36  -  0 mph 1011.9mb 63f 68f
10:30  -  0 mph 1012mb 63f 68f
10:24  -  0 mph 1012mb 63f 68f
10:18  -  1 mph - - -
10:12  -  1 mph 1012mb 63f 69f
10:06  -  1 mph 1012mb 63f 69f
10:00  -  2 mph 1012mb 63f 69f
9:54 2 2 mph 1012mb 64f 69f
9:48  -  1 mph 1012mb 64f 69f
9:42  -  1 mph 1012mb 64f 69f
9:36  -  2 mph 1011.9mb 65f 69f
9:30 2 3 mph 1011.8mb 64f 69f
9:24 3 5 mph 1011.8mb 63f 69f
9:18 3 5 mph 1011.9mb 63f 70f
9:12 3 5 mph 1011.9mb 63f 70f
9:06 3 5 mph 1011.8mb 63f 70f
9:00 3 3 mph 1011.8mb 63f 70f
8:54 3 3 mph 1011.9mb 62f 70f
8:48 2 3 mph - - -
8:42 3 3 mph 1011.8mb 62f 70f
8:36 2 2 mph 1011.8mb 62f 70f
8:30 2 2 mph 1011.8mb 62f 70f
8:24 2 3 mph 1011.7mb 62f 70f
8:18 2 3 mph - - -
8:12 2 3 mph 1011.7mb 62f 71f
8:06 2 3 mph 1011.6mb 62f 71f
8:00 3 5 mph 1011.5mb 62f 71f
7:54 3 3 mph 1011.5mb 62f 71f
7:48 2 3 mph 1011.5mb 62f 72f
7:42 2 3 mph 1011.5mb 63f 72f
7:36 2 2 mph 1011.5mb 63f 72f
7:30 2 2 mph 1011.5mb 63f 73f
7:24 2 3 mph 1011.5mb 64f 73f
7:18 1 2 mph 1011.5mb 63f 73f
7:12  -  1 mph 1011.5mb 63f 73f
7:06  -  1 mph 1011.5mb 63f 73f
7:00 1 2 mph 1011.6mb 63f 73f
6:54 1 1 mph 1011.5mb 63f 72f
6:48  -  2 mph - - -
6:42 1 2 mph 1011.6mb 62f 72f
6:36 1 2 mph 1011.5mb 62f 72f
6:30 1 2 mph 1011.6mb 63f 72f
6:24 1 2 mph 1011.6mb 63f 72f
6:18 2 2 mph 1011.5mb 64f 72f
6:12 2 2 mph 1011.6mb 64f 72f
6:06 1 2 mph 1011.6mb 64f 72f
6:00 1 2 mph 1011.6mb 64f 72f
5:54 1 2 mph 1011.7mb 65f 72f
5:48 1 2 mph - - -
5:42 2 3 mph 1011.7mb 65f 71f
5:36 2 2 mph 1011.8mb 65f 71f
5:30 1 3 mph 1011.8mb 65f 71f
5:24 2 3 mph 1011.9mb 66f 71f
5:18 3 3 mph 1011.9mb 66f 71f
5:12 2 3 mph 1011.9mb 67f 71f
5:06 2 3 mph 1012mb 67f 71f
5:00 2 2 mph 1012.1mb 66f 71f
4:54 2 2 mph 1012.2mb 66f 71f
4:48 2 3 mph - - -
4:42 2 3 mph 1012.3mb 66f 71f
4:36 2 2 mph 1012.4mb 66f 71f
4:30 2 2 mph 1012.5mb 66f 71f
4:24 2 3 mph 1012.6mb 66f 71f
4:18 2 3 mph 1012.6mb 66f 71f
4:12 3 5 mph 1012.6mb 66f 71f
4:06 3 3 mph 1012.5mb 66f 71f
4:00 3 5 mph 1012.5mb 66f 71f
3:54 3 5 mph 1012.6mb 66f 71f
3:48 3 5 mph 1012.6mb - -
3:42 3 5 mph 1012.7mb 66f 71f
3:36 3 5 mph 1012.7mb 66f 71f
3:30 5 5 mph 1012.8mb 66f 71f
3:24 2 5 mph 1012.8mb 66f 71f
3:18 2 3 mph - - -
3:12 2 2 mph 1012.9mb 65f 71f
3:06 2 2 mph 1013mb 65f 71f
3:00 2 2 mph 1013mb 65f 71f
2:54 1 2 mph 1013mb 65f 71f
2:48  -  2 mph - - -
2:42  -  1 mph 1013.2mb 65f 70f
2:36  -  1 mph 1013.2mb 65f 70f
2:30  -  1 mph 1013.2mb 65f 70f
2:24  -  2 mph 1013.2mb 65f 69f
2:18 1 2 mph 1013.3mb 65f 69f
2:12 2 2 mph 1013.3mb 65f 69f
2:06 1 2 mph 1013.3mb 65f 70f
2:00 1 2 mph 1013.4mb 64f 69f
1:54 2 3 mph 1013.3mb 64f 69f
1:48 1 3 mph - - -
1:42  -  1 mph 1013.4mb 64f 70f
1:36  -  3 mph 1013.4mb 63f 69f
1:30 2 3 mph 1013.4mb 63f 67f
1:24 2 5 mph 1013.4mb 63f 67f
1:18 3 7 mph 1013.4mb 62f 67f
1:12 6 8 mph 1013.4mb 62f 67f
1:06 8 9 mph 1013.4mb 62f 67f
1:00 9 11 mph 1013.5mb 62f 67f
12:54 10 11 mph 1013.5mb 61f 68f
12:48 11 13 mph - - -
12:42 10 11 mph 1013.6mb 58f 68f
12:36 11 13 mph 1013.6mb 56f 68f
12:30 13 14 mph 1013.7mb 57f 68f
12:24 13 14 mph 1013.7mb 56f 68f
12:18 10 11 mph - - -
12:12 10 13 mph 1013.6mb 56f 68f
12:06 11 13 mph 1013.7mb 56f 68f
12:00 11 13 mph 1013.8mb 56f 68f
11:54 11 13 mph 1013.7mb 56f 69f
11:48 11 11 mph 1013.7mb 56f 69f
11:42 9 10 mph 1013.8mb 56f 69f
11:36 8 9 mph 1013.8mb 56f 69f
11:30 8 10 mph 1013.7mb 56f 69f
11:24 10 10 mph 1013.8mb 56f 68f
11:18 9 11 mph - - -
11:12 9 10 mph 1013.8mb 56f 68f
11:06 10 10 mph 1013.7mb 56f 68f
11:00 9 10 mph 1013.7mb 57f 68f
10:54 9 10 mph 1013.7mb 57f 67f
10:48 9 10 mph 1013.7mb 57f 68f
10:42 10 10 mph 1013.6mb 57f 68f
10:36 10 10 mph 1013.6mb 58f 67f
10:30 10 10 mph 1013.6mb 58f 67f
10:24 9 10 mph 1013.5mb 59f 67f
10:18 7 8 mph - - -
10:12 3 5 mph 1013.4mb 59f 68f
10:06 3 5 mph 1013.3mb 59f 69f
10:00 1 3 mph 1013.3mb 59f 69f
9:54 2 2 mph 1013.3mb 59f 69f
9:48 1 1 mph 1013.2mb 59f 69f
9:42 1 2 mph 1013.2mb 59f 69f
9:36  -  1 mph 1013.2mb 59f 70f
9:30  -  1 mph 1013.2mb 59f 71f
9:24  -  1 mph 1013.2mb 59f 70f
9:18  -  1 mph 1013.1mb 59f 70f
9:12  -  2 mph 1013.1mb 60f 70f
9:06 1 2 mph 1013.1mb 60f 70f
9:00  -  1 mph 1012.9mb 61f 71f
8:54  -  2 mph 1012.9mb 62f 71f
8:48  -  1 mph 1012.8mb 62f 70f
8:42 1 2 mph 1012.8mb 62f 69f
8:36  -  1 mph 1012.7mb 62f 69f
8:30  -  1 mph 1012.6mb 61f 69f
8:24  -  2 mph 1012.5mb 62f 67f
8:18 1 2 mph - - -
8:12 2 3 mph 1012.4mb 61f 67f
8:06  -  1 mph 1012.4mb 61f 68f
8:00  -  2 mph 1012.3mb 61f 67f
7:54 1 2 mph 1012.3mb 61f 67f
7:48  -  1 mph 1012.1mb 61f 67f
7:42 2 2 mph 1012mb 61f 66f
7:36  -  2 mph 1011.9mb 61f 66f
7:30  -  1 mph 1011.9mb 61f 66f
7:24  -  1 mph 1011.9mb 61f 67f
7:18  -  1 mph - - -
7:12  -  1 mph 1011.8mb 60f 65f
7:06  -  1 mph 1011.8mb 60f 65f
7:00  -  1 mph 1011.8mb 61f 65f
6:54  -  0 mph 1011.7mb 61f 66f
6:48  -  1 mph - - -
6:42  -  0 mph 1011.7mb 61f 65f
6:36  -  1 mph 1011.7mb 61f 65f
6:30  -  1 mph 1011.7mb 61f 65f
6:24  -  1 mph 1011.7mb 61f 64f
6:18 1 2 mph 1011.7mb 61f 65f
6:12 1 2 mph 1011.7mb 60f 64f
6:06 1 2 mph 1011.7mb 60f 64f
6:00 2 2 mph 1011.6mb 61f 64f
5:54 2 2 mph 1011.6mb 61f 64f
5:48 1 1 mph - - -
5:42  -  1 mph 1011.4mb 61f 64f
5:36  -  1 mph 1011.3mb 61f 64f
5:30  -  1 mph 1011.4mb 61f 64f
5:24  -  0 mph 1011.3mb 61f 64f
5:18  -  0 mph 1011.3mb 61f 64f
5:12  -  0 mph 1011.3mb 61f 64f
5:06  -  0 mph 1011.3mb 61f 64f
5:00  -  0 mph 1011.3mb 61f 64f
4:54  -  0 mph 1011.2mb 61f 64f
4:48  -  1 mph 1011.3mb 61f 65f
4:42 1 1 mph 1011.3mb 61f 65f
4:36  -  1 mph 1011.3mb 61f 65f
4:30 1 1 mph 1011.2mb 61f 65f
4:24  -  0 mph 1011.2mb 61f 65f
4:18  -  0 mph 1011.2mb 61f 65f
4:12  -  1 mph 1011.3mb 61f 65f
4:06  -  1 mph 1011.3mb 61f 65f
4:00  -  1 mph 1011.2mb 61f 65f
3:54 1 2 mph 1011.2mb 61f 65f
3:48 1 2 mph 1011.2mb 62f 65f
3:42 1 2 mph 1011.3mb 62f 65f
3:36  -  2 mph 1011.3mb 62f 66f
3:30 1 2 mph 1011.4mb 61f 66f
3:24  -  1 mph 1011.4mb 61f 66f
3:18  -  0 mph 1011.5mb 61f 66f
3:12  -  1 mph 1011.5mb 61f 66f
3:06 1 2 mph 1011.5mb 61f 66f
3:00 2 3 mph 1011.6mb 61f 66f
2:54 2 3 mph 1011.6mb 61f 66f
2:48 2 2 mph - - -
2:42 2 2 mph 1011.8mb 61f 66f
2:36  -  1 mph 1011.8mb 61f 66f
2:30  -  1 mph 1011.8mb 60f 66f
2:24  -  0 mph 1011.9mb 61f 66f
2:18  -  1 mph 1011.9mb 61f 66f
2:12  -  1 mph 1012mb 60f 66f
2:06  -  2 mph 1012.1mb 60f 66f
2:00 2 3 mph 1012.1mb 60f 66f
1:54 2 2 mph 1012mb 60f 65f
1:48  -  1 mph 1012mb 60f 65f
1:42  -  1 mph 1012mb 59f 65f
1:36  -  1 mph 1012.1mb 59f 65f
1:30 2 2 mph 1012mb 59f 65f
1:24 2 2 mph 1012.1mb 59f 65f
1:18  -  0 mph 1012.2mb 59f 65f
1:12  -  0 mph 1012.2mb 58f 65f
1:06  -  2 mph 1012.1mb 55f 65f
1:00  -  1 mph 1012.1mb 55f 66f
12:54 1 1 mph 1012.1mb 55f 66f
12:48  -  1 mph - - -
12:42 1 2 mph 1012.2mb 54f 66f
12:36 1 2 mph 1012.1mb 54f 66f
12:30 2 2 mph 1012.1mb 54f 66f
12:24 1 1 mph 1012mb 54f 65f
12:18 1 2 mph 1012mb 54f 66f
12:12 2 2 mph 1011.9mb 54f 66f
12:06 2 2 mph 1011.9mb 54f 65f
12:00 1 1 mph 1012mb 54f 66f
dim. 06/25 11:54 1 1 mph 1012mb 54f 66f
11:48 1 2 mph 1012mb 54f 66f
11:42 1 1 mph 1012.1mb - -
11:36  -  0 mph 1012.1mb - -
11:30  -  1 mph 1012.1mb 54f 65f
11:24  -  1 mph 1012.1mb 54f 65f
11:18  -  1 mph 1012.1mb 54f 65f
11:12  -  1 mph 1012.1mb 54f 65f
11:06  -  1 mph 1012.1mb 54f 65f
11:00  -  1 mph 1012.1mb 54f 65f
10:54 1 1 mph 1012.2mb 54f 65f
10:48  -  2 mph 1012.2mb 54f 65f
10:42 2 2 mph 1012.2mb 54f 65f
10:36 2 3 mph 1012.2mb 54f 65f
10:30 2 2 mph 1012mb 55f 64f
10:24 1 2 mph 1011.9mb 55f 65f
10:18 2 3 mph 1011.8mb 55f 65f
10:12 3 3 mph 1011.8mb 55f 65f
10:06 3 3 mph 1011.8mb 55f 65f
10:00 1 2 mph 1011.8mb 55f 65f
9:54 1 1 mph 1011.9mb 55f 65f
9:48  -  1 mph 1011.9mb 55f 65f
9:42  -  1 mph 1011.8mb 55f 65f
9:36  -  2 mph 1011.8mb 55f 66f
9:30 1 2 mph 1011.8mb 56f 65f
9:24 2 2 mph 1011.8mb 56f 66f
9:18 2 2 mph 1011.7mb 56f 65f
9:12 2 3 mph 1011.6mb 57f 65f
9:06 2 3 mph 1011.6mb 57f 65f
9:00 3 3 mph 1011.5mb 57f 65f
8:54 3 3 mph 1011.5mb 58f 65f
8:48 2 2 mph - - -
8:42 2 2 mph 1011.5mb 58f 64f
8:36 1 1 mph 1011.5mb 58f 64f
8:30  -  1 mph 1011.5mb 58f 64f
8:24  -  1 mph 1011.5mb 58f 64f
8:18  -  0 mph 1011.4mb 59f 64f
8:12  -  0 mph 1011.5mb 58f 64f
8:06  -  0 mph 1011.5mb 59f 64f
8:00  -  1 mph 1011.5mb 59f 64f
7:54  -  2 mph 1011.5mb 59f 64f
7:48 2 2 mph 1011.4mb 59f 64f
7:42 2 2 mph 1011.3mb 60f 64f
7:36 2 3 mph 1011.3mb 60f 64f
7:30 3 3 mph 1011.2mb 60f 64f
7:24 3 5 mph 1011.1mb 60f 65f
7:18 5 6 mph - - -
7:12 6 7 mph 1011mb 60f 65f
7:06 7 7 mph 1010.9mb 61f 65f
7:00 7 8 mph 1010.9mb 61f 65f
6:54 6 9 mph 1011mb 61f 65f
6:48 7 9 mph 1011.1mb 62f 65f
6:42 7 7 mph 1011.1mb 62f 65f
6:36 7 8 mph 1011.1mb 62f 65f
6:30 7 8 mph 1011.1mb 61f 65f
6:24 8 8 mph 1011.1mb 61f 65f
6:18 8 9 mph - - -
6:12 6 7 mph 1011.1mb 61f 65f
6:06 7 8 mph 1011.1mb 62f 65f
6:00 7 9 mph 1011.1mb 61f 66f
5:54 7 10 mph 1011.1mb 62f 65f
5:48 9 10 mph - - -
5:42 7 8 mph 1011.2mb 62f 65f
5:36 7 8 mph 1011.2mb 63f 65f
5:30 5 7 mph 1011.2mb 62f 65f
5:24 5 6 mph 1011.2mb 62f 65f
5:18 6 8 mph 1011.2mb 62f 65f
5:12 7 8 mph 1011.2mb 62f 65f
5:06 7 8 mph 1011.2mb 61f 65f
5:00 7 9 mph 1011.2mb 62f 65f
4:54 6 8 mph 1011.2mb 62f 65f
4:48 7 8 mph - - -
4:42 8 8 mph 1011.2mb 62f 65f
4:36 7 8 mph 1011.3mb 62f 65f
4:30 8 10 mph 1011.4mb 62f 65f
4:24 9 10 mph 1011.3mb 62f 65f
4:00 6 8 mph 1011.7mb 61f 66f
3:54 7 9 mph 1011.8mb 61f 66f
3:48 6 8 mph - - -
3:42 6 9 mph 1011.8mb 61f 66f
3:36 6 9 mph 1011.8mb 61f 66f
3:30 8 9 mph 1011.9mb 62f 65f
3:24 7 10 mph 1012mb 62f 65f
3:18 6 6 mph - - -
3:12 7 8 mph 1012.2mb 61f 65f
3:06 8 9 mph 1012.2mb 60f 65f
3:00 8 9 mph 1012.2mb 60f 66f
2:54 6 8 mph 1012.1mb 58f 66f
2:48 6 9 mph - - -
2:42 7 8 mph 1012.2mb 59f 66f
2:36 6 7 mph 1012.3mb 58f 66f
2:30 5 6 mph 1012.3mb 58f 66f
2:24 5 7 mph 1012.4mb 57f 66f
2:18 6 6 mph 1012.4mb 57f 66f
2:12 6 7 mph 1012.5mb 58f 66f
2:06 6 9 mph 1012.5mb 60f 66f
2:00 8 9 mph 1012.4mb 58f 66f
1:54 8 9 mph 1012.5mb 57f 67f
1:48 6 7 mph 1012.5mb 58f 67f
1:42 6 7 mph 1012.5mb 58f 67f
1:36 5 6 mph 1012.6mb 58f 67f
1:30 2 5 mph 1012.6mb 58f 67f
1:24 3 7 mph 1012.7mb 59f 67f
1:18 6 9 mph 1012.7mb 61f 67f
1:12 7 8 mph 1012.5mb 59f 67f
1:06 7 8 mph 1012.4mb 59f 67f
1:00 7 8 mph 1012.4mb 61f 67f
12:54 6 7 mph 1012.3mb 62f 66f
12:48 3 5 mph 1012.4mb 62f 66f
12:42 3 6 mph 1012.4mb 62f 66f
12:36 5 6 mph 1012.4mb 62f 66f
12:30 6 8 mph 1012.4mb 61f 66f
12:24 6 8 mph 1012.5mb 62f 66f
12:18 7 8 mph 1012.5mb 62f 66f
12:12 6 8 mph 1012.3mb 61f 66f
12:06 6 8 mph 1012.4mb 61f 66f
12:00 5 7 mph 1012.3mb 60f 66f
11:54 7 8 mph 1012.3mb 60f 66f
11:48 6 7 mph 1012.2mb 60f 66f
11:42 5 6 mph 1012.2mb 60f 66f
11:36 7 8 mph 1012mb 60f 65f
11:30 6 7 mph 1012mb 60f 65f
11:24 6 7 mph 1012mb 59f 65f
11:18 5 6 mph 1012mb 59f 65f
11:12 5 7 mph 1012mb 59f 65f
11:06 3 7 mph 1011.9mb 59f 65f
11:00 7 8 mph 1011.8mb 59f 65f
10:54 7 9 mph 1011.7mb 58f 65f
10:48 5 6 mph 1011.7mb 58f 65f
10:42 5 6 mph 1011.7mb 58f 65f
10:36 6 7 mph 1011.6mb 58f 64f
10:30 3 6 mph 1011.7mb 58f 64f
10:24 3 5 mph 1011.7mb 58f 64f
10:18 5 6 mph 1011.6mb 57f 64f
10:12 6 7 mph 1011.5mb 57f 64f
10:06 6 8 mph 1011.4mb 57f 63f
10:00 8 9 mph 1011.4mb 57f 63f
9:54 9 10 mph 1011.4mb 57f 63f
9:48 7 8 mph 1011.6mb 56f 64f
9:42 6 9 mph 1011.6mb 57f 64f
9:36 9 11 mph 1011.5mb 58f 64f
9:30 9 11 mph 1011.5mb 58f 64f
9:24 8 11 mph 1011.5mb 57f 64f
9:18 9 10 mph 1011.6mb 58f 64f
9:12 8 10 mph 1011.6mb 56f 64f
9:06 8 10 mph 1011.7mb 56f 64f
9:00 8 10 mph 1011.8mb 56f 64f
8:54 8 10 mph 1011.8mb 55f 64f
8:48 7 9 mph 1011.9mb 56f 64f
8:42 8 9 mph 1011.9mb 56f 64f
8:36 8 9 mph 1011.8mb 55f 64f
8:30 8 10 mph 1011.8mb 56f 64f
8:24 8 8 mph 1011.8mb 55f 64f
8:18 7 9 mph 1011.8mb 55f 64f
8:12 9 11 mph 1011.8mb 55f 64f
8:06 9 10 mph 1011.7mb 55f 64f
8:00 9 10 mph 1011.7mb 55f 64f
7:54 9 10 mph 1011.8mb 55f 64f
7:48 7 9 mph 1011.9mb 57f 64f
7:42 9 10 mph 1011.9mb 57f 64f
7:36 6 8 mph 1011.8mb 55f 64f
7:30 7 9 mph 1011.7mb 55f 64f
7:24 6 9 mph 1011.6mb 55f 64f
7:18 7 8 mph 1011.6mb 56f 64f
7:12 6 8 mph 1011.7mb 58f 64f
7:06 7 8 mph 1011.7mb 59f 64f
7:00 7 9 mph 1011.6mb 58f 64f
6:54 6 9 mph 1011.6mb 59f 64f
6:48 7 9 mph - - -
6:42 6 8 mph 1011.5mb 58f 64f
6:36 6 7 mph 1011.5mb 57f 64f
6:30 7 9 mph 1011.5mb 58f 64f
6:24 7 9 mph 1011.4mb 58f 64f
6:18 6 8 mph 1011.4mb 58f 64f
6:12 8 8 mph 1011.4mb 58f 64f
6:06 6 7 mph 1011.3mb 59f 64f
6:00 5 7 mph 1011.3mb 59f 64f
5:54 6 8 mph 1011.2mb 58f 64f
5:48 6 8 mph - - -
5:42 5 7 mph 1011mb 57f 65f
5:36 6 7 mph 1011mb 57f 65f
5:30 5 6 mph 1011mb 58f 65f
5:24 5 7 mph 1010.9mb 59f 65f
5:18 5 6 mph 1011mb 59f 65f
5:12 5 7 mph 1010.9mb 59f 65f
5:06 5 7 mph 1010.9mb 59f 64f
5:00 6 7 mph 1010.9mb 59f 65f
4:54 5 6 mph 1010.9mb 60f 65f
4:48 5 8 mph 1010.8mb 61f 65f
4:42 6 8 mph 1010.8mb 60f 65f
4:36 3 6 mph 1010.7mb 61f 65f
4:30 6 7 mph 1010.7mb 61f 65f
4:24 5 7 mph 1010.7mb 62f 65f
4:18 5 5 mph 1010.7mb 62f 65f
4:12 6 7 mph 1010.7mb 62f 65f
4:06 6 6 mph 1010.6mb 62f 65f
4:00 3 6 mph 1010.6mb 62f 65f
3:54 2 5 mph 1010.6mb 63f 65f
3:48 5 6 mph 1010.6mb 63f 65f
3:42 3 5 mph 1010.6mb 63f 65f
3:36 3 5 mph 1010.7mb 63f 65f
3:30 5 6 mph 1010.7mb 64f 65f
3:24 2 6 mph 1010.7mb 63f 65f
3:18 3 5 mph 1010.7mb 63f 65f
3:12 5 6 mph 1010.7mb 64f 65f
3:06 2 3 mph 1010.7mb 64f 65f
3:00 2 5 mph 1010.7mb 64f 65f
2:54 3 3 mph 1010.8mb 64f 65f
2:48 2 5 mph 1010.8mb 63f 65f
2:42 5 6 mph 1010.8mb 63f 65f
2:36 6 6 mph 1010.7mb 65f 65f
2:30 2 3 mph 1010.8mb 65f 66f
2:24 2 3 mph 1010.8mb 64f 66f
2:18 2 3 mph 1010.8mb 65f 66f
2:12 3 6 mph 1010.8mb 65f 66f
2:06 2 3 mph 1010.9mb 65f 66f
2:00  -  1 mph 1010.9mb 65f 66f
1:54 1 3 mph 1010.9mb 65f 66f
1:48 3 5 mph 1010.9mb 65f 66f
1:42 2 3 mph 1010.9mb 65f 66f
1:36 2 5 mph 1011mb 65f 66f
1:30 2 5 mph 1011mb 65f 66f
1:24 5 6 mph 1011.1mb 65f 66f
1:18 3 5 mph 1011.1mb 65f 66f
1:12 3 5 mph 1011mb 65f 66f
1:06 3 6 mph 1011mb 65f 66f
1:00 3 5 mph 1011mb 65f 66f
12:54 3 7 mph 1011mb 65f 66f
12:48 6 6 mph - - -
12:42 3 5 mph 1011.1mb 65f 66f
12:36 3 6 mph 1011.1mb 65f 66f
12:30 6 7 mph 1011.1mb 64f 66f
12:24 7 8 mph 1011.1mb 64f 66f
12:18 7 8 mph - - -
12:12 7 8 mph 1011.1mb 62f 66f
12:06 6 7 mph 1011.2mb 61f 66f
12:00 3 8 mph 1011.2mb 61f 66f
sam. 06/24 11:54 6 7 mph 1011.2mb 61f 66f
11:48 5 6 mph 1011.3mb 61f 66f
11:42 2 3 mph 1011.3mb 62f -
11:36 3 5 mph 1011.3mb 62f -
11:30 5 6 mph 1011.2mb 63f 66f
11:24 5 5 mph 1011.3mb 64f 66f
11:18 3 5 mph 1011.3mb 64f 65f
11:12 5 6 mph 1011.3mb 64f 65f
11:06 6 7 mph 1011.4mb 64f 65f
11:00 7 8 mph 1011.4mb 64f 65f
10:54 6 7 mph 1011.4mb 64f 65f
10:48 6 7 mph 1011.3mb 64f 65f
10:42 7 8 mph 1011.4mb - -
10:36 5 8 mph 1011.4mb - -
10:30 7 8 mph 1011.3mb 65f 65f
10:24 7 9 mph 1011.3mb 64f 65f
10:18 7 8 mph 1011.3mb 64f 65f
10:12 8 9 mph 1011.3mb 64f 65f
10:06 7 8 mph 1011.3mb 63f 65f
10:00 6 8 mph 1011.2mb 64f 65f
9:54 6 8 mph 1011.2mb 64f 65f
9:48 6 7 mph - - -
9:42 6 7 mph 1011.2mb 63f 65f
9:36 7 9 mph 1011mb 63f 65f
9:30 5 6 mph 1011mb 62f 65f
9:24 5 9 mph 1011mb 63f 65f
9:18 6 8 mph 1010.9mb 61f 65f
9:12 2 6 mph 1010.8mb 61f 65f
9:06 7 9 mph 1010.7mb 61f 65f
9:00 5 8 mph 1010.7mb 61f 65f
8:54 3 8 mph 1010.7mb 61f 65f
8:48 3 7 mph - - -
8:42 3 6 mph 1010.6mb 61f 65f
8:36 5 6 mph 1010.6mb 61f 65f
8:30 6 7 mph 1010.6mb 62f 65f
8:24 3 6 mph 1010.6mb 61f 65f
8:18 6 7 mph - - -
8:12 6 6 mph 1010.5mb 61f 65f
8:06 3 7 mph 1010.5mb 61f 65f
8:00 5 6 mph 1010.5mb 61f 65f
7:54 5 7 mph 1010.5mb 62f 65f
7:48 3 5 mph 1010.5mb 63f 65f
7:42 3 7 mph 1010.5mb 63f 65f
7:36 2 6 mph 1010.5mb 63f 65f
7:30 5 7 mph 1010.4mb 63f 65f
7:24 5 9 mph 1010.4mb 63f 65f
7:18 7 8 mph - - -
7:12 5 7 mph 1010.4mb 63f 65f
7:06 5 7 mph 1010.4mb 64f 65f
7:00 7 9 mph 1010.4mb 64f 65f
6:54 6 8 mph 1010.5mb 63f 65f
6:48 7 9 mph - - -
6:42 6 8 mph 1010.5mb 64f 65f
6:36 8 10 mph 1010.5mb 64f 65f
6:30 8 10 mph 1010.5mb 64f 65f
6:24 9 10 mph 1010.5mb 64f 65f
6:18 9 10 mph - - -
6:12 8 10 mph 1010.4mb 64f 65f
6:06 8 10 mph 1010.3mb 64f 65f
6:00 7 9 mph 1010.3mb 64f 65f
5:54 8 10 mph 1010.3mb 64f 65f
5:48 9 10 mph 1010.4mb 64f 65f
5:42 7 9 mph 1010.3mb 64f 65f
5:36 8 11 mph 1010.4mb 63f 65f
5:30 8 11 mph 1010.4mb 63f 65f
5:24 9 11 mph 1010.5mb 63f 66f
5:18 8 10 mph - - -
5:12 9 11 mph 1010.6mb 63f 66f
5:06 10 11 mph 1010.7mb 64f 66f
5:00 9 11 mph 1010.7mb 64f 66f
4:54 9 11 mph 1010.7mb 65f 66f
4:48 9 10 mph 1010.8mb - -
4:42 9 10 mph 1010.9mb 66f 66f
4:36 8 10 mph 1011mb 66f 66f
4:30 7 9 mph 1011.1mb 66f 66f
4:24 8 11 mph 1011.1mb 65f 66f
4:00 8 10 mph 1011.2mb 61f 67f
3:54 9 11 mph 1011.3mb 59f 66f
3:48 9 10 mph - - -
3:42 9 11 mph 1011.4mb 60f 67f
3:36 8 10 mph 1011.4mb 58f 67f
3:30 9 11 mph 1011.5mb 57f 67f
3:24 9 11 mph 1011.6mb 57f 67f
3:18 9 11 mph - - -
3:12 9 11 mph 1011.7mb 57f 67f
3:06 8 10 mph 1011.8mb 57f 67f
3:00 7 9 mph 1011.8mb 57f 67f
2:54 9 10 mph 1011.9mb 57f 67f
2:48 7 8 mph 1011.9mb 57f 68f
2:42 6 7 mph 1012mb 57f 68f
2:36 6 8 mph 1012mb 57f 68f
2:30 6 7 mph 1012.1mb 57f 69f
2:24 6 8 mph 1012.2mb 57f 68f
2:18 3 7 mph 1012.2mb 57f 69f
2:12 6 8 mph 1012.3mb 57f 68f
2:06 5 8 mph 1012.2mb 57f 68f
2:00 8 10 mph 1012.3mb 57f 67f
1:54 8 10 mph 1012.3mb 57f 67f
1:48 8 9 mph 1012.3mb 58f 67f
1:42 7 9 mph 1012.3mb 58f 67f
1:36 8 9 mph 1012.4mb 58f 67f
1:30 8 9 mph 1012.4mb 57f 67f
1:24 8 9 mph 1012.4mb 57f 67f
1:18 8 8 mph 1012.4mb 57f 67f
1:12 7 8 mph 1012.5mb 57f 67f
1:06 7 8 mph 1012.5mb 57f 67f
1:00 6 8 mph 1012.5mb 58f 68f
12:54 6 7 mph 1012.6mb 58f 68f
12:48 6 8 mph 1012.6mb 58f 68f
12:42 6 6 mph 1012.6mb 58f 68f
12:36 5 6 mph 1012.6mb 58f 68f
12:30 6 8 mph 1012.7mb 58f 67f
12:24 6 8 mph 1012.7mb 59f 68f
12:18 6 7 mph 1012.8mb 58f 67f
12:12 6 7 mph 1012.7mb 58f 67f
12:06 5 6 mph 1012.7mb 58f 67f
12:00 6 7 mph 1012.7mb 58f 67f
11:54 6 7 mph 1012.7mb 58f 67f
11:48 5 7 mph - - -
11:42 7 8 mph 1012.8mb 57f 67f
11:36 6 7 mph 1012.7mb 57f 67f
11:30 6 7 mph 1012.7mb 58f 67f
11:24 6 6 mph 1012.8mb 58f 67f
11:18 3 7 mph 1012.8mb 58f 67f
11:12 6 7 mph 1012.7mb 59f 66f
11:06 6 8 mph 1012.8mb 61f 67f
11:00 6 8 mph 1012.7mb 62f 66f
10:54 7 9 mph 1012.8mb 64f 66f
10:48 7 8 mph 1012.7mb 64f 66f
10:42 7 8 mph 1012.6mb 64f 66f
10:36 6 8 mph 1012.7mb 64f 66f
10:30 6 8 mph 1012.7mb 63f 66f
10:24 5 6 mph 1012.6mb 64f 66f
10:18 2 3 mph 1012.7mb 63f 66f
10:12 5 6 mph 1012.7mb 63f 66f
10:06 5 5 mph 1012.7mb 64f 66f
10:00 3 5 mph 1012.6mb 65f 66f
9:54 3 5 mph 1012.6mb 65f 66f
9:48 3 6 mph 1012.7mb 65f 66f
9:42 3 6 mph 1012.6mb 65f 66f
9:36 5 6 mph 1012.5mb 65f 66f
9:30 7 8 mph 1012.6mb 65f 66f
9:24 7 9 mph 1012.5mb 65f 66f
9:18 7 8 mph 1012.4mb 65f 66f
9:12 3 6 mph 1012.4mb 66f 65f
9:06 7 8 mph 1012.6mb 66f 65f
9:00 7 8 mph 1012.7mb 66f 65f
8:54 7 8 mph 1012.5mb 66f 65f
8:48 7 9 mph 1012.5mb 66f 65f
8:42 7 9 mph 1012.4mb 66f 65f
8:36 8 10 mph 1012.4mb 66f 65f
8:30 7 9 mph 1012.5mb 66f 65f
8:24 8 9 mph 1012.4mb 66f 65f
8:18 8 11 mph 1012.3mb 66f 65f
8:12 9 10 mph 1012.3mb 66f 65f
8:06 9 13 mph 1012.3mb 66f 65f
8:00 10 11 mph 1012.2mb 66f 65f
7:54 9 10 mph 1012.3mb 66f 65f
7:48 9 10 mph 1012.4mb 66f 65f
7:42 7 9 mph 1012.4mb 66f 65f
7:36 6 8 mph 1012.3mb 66f 65f
7:30 7 8 mph 1012.3mb 66f 65f